Location: Ch�ze
(42.9000°N, 0.0333°W)
Time: 23:34:26
(UTC+00:00)

SAR-Lupe-1 - Pass Details

Date: 24 January 2021
Orbit: 481 x 485 km, 98.2° (Epoch: 22 February)

Event Time Altitude Azimuth Distance (km) Brightness Sun altitude
Exits shadow 18:36:58 18° 17° (NNE) 1,255 5.9 -17.2°
Maximum altitude 18:39:33 80° 103° (ESE) 495 3.9 -17.7°
Drops below altitude 10° 18:43:07 10° 191° (S) 1,656 7.0 -18.3°
Sets 18:45:10 0° 192° (SSW) 2,531 8.0 -18.7°
